Change the Weather History Date:

Thursday, October 11, 2012

  Actual Average Record
Temperature  
Mean Temperature 78 °F -  
Max Temperature 84 °F 87 °F 91 °F (2003)
Min Temperature 71 °F 76 °F 68 °F (2013)
Cooling Degree Days 12    
Growing Degree Days 28 (Base 50)    
Moisture  
Dew Point 73 °F    
Average Humidity 86    
Maximum Humidity 100    
Minimum Humidity 70    
Precipitation  
Precipitation 0.00 in - - ()
Sea Level Pressure  
Sea Level Pressure 29.99 in    
Wind  
Wind Speed 5 mph ()    
Max Wind Speed 14 mph    
Max Gust Speed -    
Visibility 7.5 miles    
Events      
Averages and records for this station are not official NWS values.
T = Trace of Precipitation, MM = Missing Value Source: Averaged Metar Reports

Daily Weather History Graph

Daily Weather History Graph

Search for Another Location

Airport or City:

Trip Planner

Search our weather history database for the weather conditions in past years. The results will help you decide how hot, cold, wet, or windy it might be!

Date:

Astronomy

Oct. 11, 2012 Rise Set
Actual Time 6:41 AM CDT 6:26 PM CDT
Civil Twilight 6:19 AM CDT 6:48 PM CDT
Nautical Twilight 5:53 AM CDT 7:14 PM CDT
Astronomical Twilight 5:28 AM CDT 7:40 PM CDT
Moon 2:50 AM CDT (10/11) 3:37 PM CDT (10/11)
Length of Visible Light 12h 29m
Length of Day
11h 44m
Waning Crescent, 18% of the Moon is Illuminated
Oct 11
Waning Crescent
Oct 15
New
Oct 21
First Quarter
Oct 29
Full
Nov 6
Last Quarter

Hourly Weather History & Observations

Time (CDT) Temp. Heat Index Dew Point Humidity Pressure Visibility Wind Dir Wind Speed Gust Speed Precip Events Conditions
12:40 AM 73.4 °F - 71.6 °F 94% 29.95 in 7.0 mi NNE 3.5 mph - N/A   Mostly Cloudy
1:41 AM 73.4 °F - 71.6 °F 94% 29.98 in 7.0 mi Calm Calm - N/A   Mostly Cloudy
2:43 AM 73.4 °F - 71.6 °F 94% 29.96 in 7.0 mi Calm Calm - N/A   Scattered Clouds
3:40 AM 71.6 °F - 69.8 °F 94% 29.98 in 7.0 mi Calm Calm - N/A   Partly Cloudy
4:40 AM 71.6 °F - 69.8 °F 94% 29.96 in 7.0 mi ENE 3.5 mph - N/A   Partly Cloudy
5:43 AM 71.6 °F - 71.6 °F 100% 29.98 in 6.0 mi SE 4.6 mph - N/A   Mostly Cloudy
6:41 AM 71.6 °F - 69.8 °F 94% 29.95 in 7.0 mi Calm Calm - N/A   Mostly Cloudy
7:42 AM 71.6 °F - 69.8 °F 94% 30.01 in 7.0 mi NNE 3.5 mph - N/A   Scattered Clouds
8:45 AM 75.2 °F - 73.4 °F 94% 30.04 in 8.0 mi East 3.5 mph - N/A   Scattered Clouds
9:41 AM 78.8 °F - 75.2 °F 89% 30.08 in 8.0 mi East 5.8 mph - N/A   Scattered Clouds
10:43 AM 82.4 °F 89.5 °F 75.2 °F 79% 30.04 in 8.0 mi ENE 8.1 mph - N/A   Mostly Cloudy
11:47 AM 84.2 °F 90.9 °F 73.4 °F 70% 30.03 in 8.0 mi NE 10.4 mph - N/A   Scattered Clouds
12:45 PM 84.2 °F 90.9 °F 73.4 °F 70% 29.97 in 8.0 mi NE 11.5 mph - N/A   Scattered Clouds
1:45 PM 84.2 °F 92.3 °F 75.2 °F 74% 29.98 in 8.0 mi ENE 12.7 mph - N/A   Scattered Clouds
2:41 PM 84.2 °F 92.3 °F 75.2 °F 74% 29.97 in 8.0 mi ENE 10.4 mph - N/A   Scattered Clouds
3:52 PM 82.4 °F 89.5 °F 75.2 °F 79% 29.99 in 8.0 mi ENE 13.8 mph - N/A   Scattered Clouds
4:47 PM 82.4 °F 89.5 °F 75.2 °F 79% 29.96 in 8.0 mi NE 13.8 mph - N/A   Scattered Clouds
5:45 PM 80.6 °F 85.4 °F 73.4 °F 79% 29.96 in 8.0 mi ENE 9.2 mph - N/A   Partly Cloudy
6:41 PM 78.8 °F - 73.4 °F 83% 29.94 in 8.0 mi ENE 8.1 mph - N/A   Scattered Clouds
7:52 PM 78.8 °F - 73.4 °F 83% 29.97 in 8.0 mi East 8.1 mph - N/A   Scattered Clouds
8:40 PM 77.0 °F - 73.4 °F 89% 30.00 in 8.0 mi East 3.5 mph - N/A   Scattered Clouds
9:47 PM 77.0 °F - 73.4 °F 89% 29.94 in 8.0 mi East 5.8 mph - N/A   Scattered Clouds
10:40 PM 77.0 °F - 73.4 °F 89% 30.02 in 7.0 mi East 8.1 mph - N/A   Scattered Clouds
11:49 PM 77.0 °F - 71.6 °F 83% 30.02 in 7.0 mi East 6.9 mph - N/A   Scattered Clouds